Location: Oroua River
(40.4333°S, 175.4333°E)
Time: 15:30:56
(UTC+00:00)

Lacrosse 5 rocket - Pass Details

Date: 03 February 2023
Orbit: 454 x 613 km, 57.0° (Epoch: 22 March)

Event Time Altitude Azimuth Distance (km) Brightness Sun altitude
Exits shadow 12:14:08 11° 125° (SE) 1,943 4.4 -32.9°
Drops below altitude 10° 12:14:17 10° 126° (SE) 2,001 4.5 -32.9°
Enters shadow 13:16:36 -57° 311° (NW) 11,263 8.0 -32.1°
Sets 13:55:38 0° 141° (SE) 2,922 6.1 -29.9°
